FW7275 Weather Reports


Display with metric or nautical units.
time (UTC)temp
F
wind
direction
speed
MPH
gust
MPH
rain 1hr
in
rain 24hr
in
rain mn
in
humidity
%
barometer
mb
20260903184026 71 0 0.0 0.0 0.00 0.00 0.00 59
20260903183035 72 0 0.0 0.0 0.00 0.00 0.00 59
20260903181028 72 0 0.0 0.0 0.00 0.00 0.00 57
20260903180038 73 0 0.0 0.0 0.00 0.00 0.00 57
20260903175027 73 0 0.0 0.0 0.00 0.00 0.00 56
20260903174022 74 0 0.0 0.0 0.00 0.00 0.00 55
20260903173028 74 0 0.0 0.0 0.00 0.00 0.00 54
20260903172022 75 0 0.0 0.0 0.00 0.00 0.00 54
20260903171025 75 0 0.0 0.0 0.00 0.00 0.00 53
20260903165025 76 0 0.0 0.0 0.00 0.00 0.00 52
20260903164021 76 0 0.0 0.0 0.00 0.00 0.00 52
20260903162027 78 0 0.0 0.0 0.00 0.00 0.00 50
20260903161026 78 0 0.0 0.0 0.00 0.00 0.00 50
20260903160033 78 0 0.0 0.0 0.00 0.00 0.00 50
20260903155028 79 0 0.0 0.0 0.00 0.00 0.00 49
20260903154029 79 0 0.0 0.0 0.00 0.00 0.00 50
20260903152031 80 0 0.0 0.0 0.00 0.00 0.00 48
20260903151027 80 0 0.0 0.0 0.00 0.00 0.00 48
20260903150032 80 0 0.0 0.0 0.00 0.00 0.00 48
20260903145022 79 0 0.0 0.0 0.00 0.00 0.00 46
20260903143023 80 0 0.0 0.0 0.00 0.00 0.00 47
20260903142026 80 0 0.0 0.0 0.00 0.00 0.00 46
20260903141021 81 0 0.0 0.0 0.00 0.00 0.00 46
20260903140033 82 0 0.0 0.0 0.00 0.00 0.00 47
20260903135028 82 0 0.0 0.0 0.00 0.00 0.00 46
20260903134026 81 0 0.0 0.0 0.00 0.00 0.00 47
20260903133032 81 0 0.0 0.0 0.00 0.00 0.00 47
20260903132033 79 0 0.0 0.0 0.00 0.00 0.00 49
20260903131034 79 0 0.0 0.0 0.00 0.00 0.00 48
20260903130029 79 0 0.0 0.0 0.00 0.00 0.00 48
20260903125028 79 0 0.0 0.0 0.00 0.00 0.00 49
20260903123028 79 0 0.0 0.0 0.00 0.00 0.00 49
20260903122030 79 0 0.0 0.0 0.00 0.00 0.00 48
20260903121021 80 0 0.0 0.0 0.00 0.00 0.00 47
20260903120031 80 0 0.0 0.0 0.00 0.00 0.00 47
20260903114027 81 0 0.0 0.0 0.00 0.00 0.00 46
20260903113035 82 0 0.0 0.0 0.00 0.00 0.00 47
20260903112025 81 0 0.0 0.0 0.00 0.00 0.00 48
20260903105032 79 0 0.0 0.0 0.00 0.00 0.00 51
20260903104029 79 0 0.0 0.0 0.00 0.00 0.00 50
20260903103029 81 0 0.0 0.0 0.00 0.00 0.00 50
20260903102026 82 0 0.0 0.0 0.00 0.00 0.00 50
20260903101030 81 0 0.0 0.0 0.00 0.00 0.00 50
20260903100032 80 0 0.0 0.0 0.00 0.00 0.00 51
20260903095027 79 0 0.0 0.0 0.00 0.00 0.00 52
20260903094040 78 0 0.0 0.0 0.00 0.00 0.00 53
20260903093032 80 0 0.0 0.0 0.00 0.00 0.00 51
20260903092029 80 0 0.0 0.0 0.00 0.00 0.00 51
20260903091019 80 0 0.0 0.0 0.00 0.00 0.00 52
20260903085031 79 0 0.0 0.0 0.00 0.00 0.00 55
20260903083026 76 0 0.0 0.0 0.00 0.00 0.00 58
20260903081025 74 0 0.0 0.0 0.00 0.00 0.00 63
20260903080034 72 0 0.0 0.0 0.00 0.00 0.00 64
20260903075033 74 0 0.0 0.0 0.00 0.00 0.00 64
20260903074021 72 0 0.0 0.0 0.00 0.00 0.00 66
20260903073037 72 0 0.0 0.0 0.00 0.00 0.00 66
20260903072021 72 0 0.0 0.0 0.00 0.00 0.00 64
20260903071043 73 0 0.0 0.0 0.00 0.00 0.00 63
20260903070044 72 0 0.0 0.0 0.00 0.00 0.00 66
20260903065035 70 0 0.0 0.0 0.00 0.00 0.00 68
20260903063030 68 0 0.0 0.0 0.00 0.00 0.00 71
20260903062029 67 0 0.0 0.0 0.00 0.00 0.00 75
20260903061035 61 0 0.0 0.0 0.00 0.00 0.00 81
20260903060036 60 0 0.0 0.0 0.00 0.00 0.00 82
20260903055028 59 0 0.0 0.0 0.00 0.00 0.00 84
20260903054027 57 0 0.0 0.0 0.00 0.00 0.00 85
20260903053035 56 0 0.0 0.0 0.00 0.00 0.00 85
20260903052025 56 0 0.0 0.0 0.00 0.00 0.00 86
20260903050029 55 0 0.0 0.0 0.00 0.00 0.00 85
20260903045029 55 0 0.0 0.0 0.00 0.00 0.00 86
20260903042033 56 0 0.0 0.0 0.00 0.00 0.00 84
20260903041022 56 0 0.0 0.0 0.00 0.00 0.00 84
20260903040030 56 0 0.0 0.0 0.00 0.00 0.00 84
20260903035030 56 0 0.0 0.0 0.00 0.00 0.00 83
20260903034034 56 0 0.0 0.0 0.00 0.00 0.00 82
20260903032030 58 0 0.0 0.0 0.00 0.00 0.00 82
20260903031026 58 0 0.0 0.0 0.00 0.00 0.00 82
20260903030035 58 0 0.0 0.0 0.00 0.00 0.00 82
20260903025029 58 0 0.0 0.0 0.00 0.00 0.00 82
20260903024030 59 0 0.0 0.0 0.00 0.00 0.00 81
20260903023024 59 0 0.0 0.0 0.00 0.00 0.00 80
20260903022029 60 0 0.0 0.0 0.00 0.00 0.00 80
20260903020030 60 0 0.0 0.0 0.00 0.00 0.00 80
20260903015023 60 0 0.0 0.0 0.00 0.00 0.00 80
20260903014022 60 0 0.0 0.0 0.00 0.00 0.00 80
20260903013029 60 0 0.0 0.0 0.00 0.00 0.00 79
20260903012021 60 0 0.0 0.0 0.00 0.00 0.00 79
20260903005030 60 0 0.0 0.0 0.00 0.00 0.00 78
20260903004022 60 0 0.0 0.0 0.00 0.00 0.00 78
20260903003031 60 0 0.0 0.0 0.00 0.00 0.00 78
20260903002026 60 0 0.0 0.0 0.00 0.00 0.00 78
20260903001033 60 0 0.0 0.0 0.00 0.00 0.00 77
20260902234031 61 0 0.0 0.0 0.00 0.00 0.00 77
20260902233033 61 0 0.0 0.0 0.00 0.00 0.00 76
20260902232029 61 0 0.0 0.0 0.00 0.00 0.00 76
20260902225034 62 0 0.0 0.0 0.00 0.00 0.00 75
20260902224032 61 0 0.0 0.0 0.00 0.00 0.00 75
20260902223029 61 0 0.0 0.0 0.00 0.00 0.00 75
20260902222032 61 0 0.0 0.0 0.00 0.00 0.00 76
20260902221034 61 0 0.0 0.0 0.00 0.00 0.00 76
20260902220039 61 0 0.0 0.0 0.00 0.00 0.00 76
20260902215033 61 0 0.0 0.0 0.00 0.00 0.00 75
20260902214024 61 0 0.0 0.0 0.00 0.00 0.00 75
20260902212034 61 0 0.0 0.0 0.00 0.00 0.00 75
20260902211026 62 0 0.0 0.0 0.00 0.00 0.00 75
20260902210036 62 0 0.0 0.0 0.00 0.00 0.00 75
20260902205034 62 0 0.0 0.0 0.00 0.00 0.00 74
20260902204026 63 0 0.0 0.0 0.00 0.00 0.00 75
20260902202029 64 0 0.0 0.0 0.00 0.00 0.00 76
20260902200043 65 0 0.0 0.0 0.00 0.00 0.00 76
20260902195030 65 0 0.0 0.0 0.00 0.00 0.00 76
20260902194027 66 0 0.0 0.0 0.00 0.00 0.00 73
20260902193029 66 0 0.0 0.0 0.00 0.00 0.00 73
20260902192028 66 0 0.0 0.0 0.00 0.00 0.00 73
20260902191024 67 0 0.0 0.0 0.00 0.00 0.00 73
20260902190038 67 0 0.0 0.0 0.00 0.00 0.00 73
20260902185028 68 0 0.0 0.0 0.00 0.00 0.00 70